This is the latest recevied weather packets stored in our database for station/object KB1FFS. If no packets are shown the sender has not sent any weather packets the latest 10 day(s).
| Time | Temp. | Humidity | Pressure | Rain* | Wind** | Luminosity | Snow |
|---|---|---|---|---|---|---|---|
| 1777126810 | 24.44° C | 87% | 1008.4 hPa | 0 mm | - | 119 W/m² | - |
| 1777126506 | 24.44° C | 88% | 1008.5 hPa | 0 mm | - | 121 W/m² | - |
| 1777126201 | 23.89° C | 89% | 1008.5 hPa | 0 mm | - | 103 W/m² | - |
| 1777125898 | 23.89° C | 90% | 1008.6 hPa | 0 mm | - | 80 W/m² | - |
| 1777125594 | 23.33° C | 92% | 1008.7 hPa | 0 mm | - | 145 W/m² | - |
| 1777125289 | 22.78° C | 92% | 1008.6 hPa | 0 mm | - | 56 W/m² | - |
| 1777124989 | 22.78° C | 93% | 1008.7 hPa | 0 mm | - | 38 W/m² | - |
| 1777124687 | 22.22° C | 93% | 1008.6 hPa | 0 mm | - | 55 W/m² | - |
| 1777124383 | 21.67° C | 92% | 1008.6 hPa | 0 mm | - | 92 W/m² | - |
| 1777124079 | 21.67° C | 92% | 1008.6 hPa | 0 mm | - | 72 W/m² | - |
| 1777123776 | 21.11° C | 92% | 1008.5 hPa | 0 mm | - | 56 W/m² | - |
| 1777123473 | 21.11° C | 92% | 1008.3 hPa | 0 mm | - | 57 W/m² | - |
| 1777123173 | 20.56° C | 92% | 1008.3 hPa | 0 mm | - | 76 W/m² | - |
| 1777122870 | 20.56° C | 91% | 1008.2 hPa | 0 mm | - | 69 W/m² | - |
| 1777122566 | 20° C | 91% | 1008.4 hPa | 0 mm | - | 53 W/m² | - |
| 1777122262 | 20° C | 91% | 1008.4 hPa | 0 mm | - | 35 W/m² | - |
| 1777121958 | 20° C | 91% | 1008.5 hPa | 0 mm | - | 43 W/m² | - |
| 1777121655 | 19.44° C | 91% | 1008.4 hPa | 0 mm | - | 38 W/m² | - |
| 1777121352 | 19.44° C | 92% | 1008.3 hPa | 0 mm | - | 39 W/m² | - |
| 1777121048 | 19.44° C | 92% | 1008.3 hPa | 0 mm | - | 45 W/m² | - |
| 1777120744 | 18.89° C | 92% | 1008.2 hPa | 0 mm | - | 30 W/m² | - |
| 1777120440 | 18.89° C | 92% | 1008.1 hPa | 0 mm | - | 18 W/m² | - |
| 1777120135 | 18.89° C | 92% | 1008.3 hPa | 0 mm | - | 14 W/m² | - |
| 1777119831 | 18.89° C | 92% | 1008.4 hPa | 0 mm | - | 25 W/m² | - |
| 1777119527 | 18.89° C | 92% | 1008.1 hPa | 0 mm | - | 13 W/m² | - |
* Rain latest hour (hover to see other rain measurements)
** Current wind speed in m/s (hover to see current wind gust speed)